SCP
0 0 0 1 1 1 1 1 1 1 1 1 0 0 1 0 0 0 0 0 0 0 0 0 0 0 0 0 0 1 1 1 1 1 0 0 0 0 0 0 0 0 0
0 0 1 1 1 1 1 1 1 1 1 1 1 1 1 1 1 0 0 0 0 0 0 1 1 1 0 0 1 1 1 1 1 1 1 0 0 0 0 0 0 0 0
0 0 1 1 1 1 1 1 1 1 1 1 1 1 1 1 1 1 1 1 1 1 1 1 1 1 1 1 1 1 1 1 1 1 1 1 1 1 0 0 0 0 0
0 0 1 1 1 2 2 1 1 1 1 1 1 1 1 1 1 1 1 1 1 1 1 1 1 1 1 1 1 1 1 1 1 1 1 1 1 1 1 1 0 0 0
0 0 0 1 2 2 2 2 2 2 2 1 1 1 1 1 1 1 1 1 1 1 1 1 1 1 1 1 1 1 1 1 1 1 1 2 2 1 1 1 1 1 1
0 0 0 0 1 1 2 2 2 2 2 2 2 1 1 1 1 1 1 1 1 1 1 1 1 1 1 1 1 1 1 1 1 1 2 2 2 2 1 1 1 1 1
0 0 0 0 0 0 1 1 1 2 2 2 2 2 2 2 2 2 1 1 1 1 1 1 2 2 2 1 1 1 1 1 1 1 2 2 2 2 1 1 1 1 1
0 0 0 0 0 0 0 0 0 1 1 1 2 2 3 3 3 2 2 2 1 2 2 2 2 3 2 2 2 2 2 2 2 2 2 2 2 2 1 1 1 1 1
0 0 0 0 0 0 0 0 0 0 0 0 0 1 2 2 3 2 2 2 2 2 2 2 3 3 3 3 3 3 3 3 2 2 2 2 3 2 2 1 1 1 1
0 0 0 0 0 0 0 0 0 0 0 0 0 0 1 1 2 2 2 2 3 3 3 3 3 3 3 3 3 3 3 2 2 2 2 3 3 3 2 2 1 1 1
0 0 0 0 0 0 0 0 0 0 0 0 0 0 0 0 1 1 1 2 3 3 3 3 3 3 3 3 3 3 2 2 2 2 2 3 3 3 3 2 2 1 1
0 0 0 0 0 0 0 0 0 0 0 0 0 0 0 0 0 0 0 1 2 2 2 2 3 3 3 2 2 2 2 1 1 1 2 2 3 3 3 3 2 2 1
0 0 0 0 0 0 0 0 0 0 0 0 0 0 0 0 0 0 0 0 1 1 2 2 2 2 2 2 2 2 1 1 1 1 1 2 2 2 2 2 3 2 1
0 0 0 0 0 0 0 0 0 0 0 0 0 0 0 0 0 0 0 0 0 1 1 1 2 2 2 1 1 1 1 1 1 1 1 1 1 1 1 2 2 2 2
0 0 0 0 0 0 0 0 0 0 0 0 0 0 0 0 0 0 0 0 0 0 0 1 1 1 1 1 1 1 1 1 1 1 1 1 1 1 1 1 2 2 2
0 0 0 0 0 0 0 0 0 0 0 0 0 0 0 0 0 0 0 0 0 0 0 0 0 0 1 1 1 1 1 1 1 1 1 1 1 1 1 1 1 2 2
0 0 0 0 0 0 0 0 0 0 0 0 0 0 0 0 0 0 0 0 0 0 0 0 0 0 0 0 0 0 0 1 1 1 1 1 1 1 1 1 1 1 2
0 0 0 0 0 0 0 0 0 0 0 0 0 0 0 0 0 0 0 0 0 0 0 0 0 0 0 0 0 0 0 0 0 1 1 1 1 1 2 1 1 1 2
0 0 0 0 0 0 0 0 0 0 0 0 0 0 0 0 0 0 0 0 0 0 0 0 0 0 0 0 0 0 0 0 0 0 1 1 1 1 2 2 2 2 2
0 0 0 0 0 0 0 0 0 0 0 0 0 0 0 0 0 0 0 0 0 0 0 0 0 0 0 0 0 0 0 0 0 0 0 0 0 1 1 2 2 3 2
0 0 0 0 0 0 0 0 0 0 0 0 0 0 0 0 0 0 0 0 0 0 0 0 0 0 0 0 0 0 0 0 0 0 0 0 0 1 1 2 3 3 3
0 0 0 0 0 0 0 0 0 0 0 0 0 0 0 0 0 0 0 0 0 0 0 0 0 0 0 0 0 0 0 0 0 0 0 0 0 1 1 2 2 3 3
0 0 0 0 0 0 0 0 0 0 0 0 0 0 0 0 0 0 0 0 0 0 0 0 0 0 0 0 0 0 0 0 0 0 0 0 1 1 1 2 2 2 3
0 0 0 0 0 0 0 0 0 0 0 0 0 0 0 0 0 0 0 0 0 0 0 0 0 0 0 0 0 0 0 0 0 0 0 0 1 1 1 1 2 2 2
0 0 0 0 0 0 0 0 0 0 0 0 0 0 0 0 0 0 0 0 0 0 0 0 0 0 0 0 0 0 0 0 0 0 0 0 1 1 1 1 1 2 2
0 0 0 0 0 0 0 0 0 0 0 0 0 0 0 0 0 0 0 0 0 0 0 0 0 0 0 0 0 0 0 0 0 0 0 0 0 1 1 1 1 1 1
Wind_Speed
13 10 10 9 9 9 9 10 11 12 12 8 6 6 7 7 7 7 6 6 5 5 5 5 5 4 4 3 2 2 3 3 1 1 3 3 5 6 6 6 5 4 6
14 12 10 12 11 10 10 9 8 8 9 9 8 8 9 9 8 8 8 8 8 8 8 8 7 7 5 5 3 3 4 3 2 1 1 4 5 6 6 6 5 3 4
21 19 19 19 15 12 10 8 7 7 7 8 10 10 10 11 10 10 9 8 9 9 10 10 9 8 7 6 5 4 4 4 4 2 2 6 5 5 5 5 4 4 5
20 19 21 26 24 20 18 16 12 10 8 7 8 10 11 12 12 11 10 10 9 10 11 11 10 10 9 7 6 6 7 6 4 3 5 5 4 6 5 5 5 6 7
17 17 21 28 27 27 26 23 20 18 15 11 9 12 12 14 13 13 12 11 11 11 11 11 10 11 10 8 8 8 8 7 5 6 5 2 1 6 6 6 6 6 6
19 18 22 28 28 28 27 28 28 26 23 18 14 13 13 14 13 13 14 12 11 11 11 11 10 10 9 8 8 9 10 8 8 7 5 3 3 3 5 8 7 6 7
20 19 21 27 27 28 28 28 27 26 27 26 25 21 18 15 13 13 14 13 12 11 11 10 9 8 7 8 8 9 9 8 9 7 5 5 5 4 7 9 9 8 8
19 19 19 22 25 26 28 29 28 27 27 26 26 26 25 23 16 13 12 13 12 11 9 8 8 8 7 6 7 8 7 7 9 8 7 6 5 6 9 11 10 11 10
19 18 18 18 20 21 23 27 27 28 28 27 26 26 24 23 21 18 14 14 12 11 10 10 9 8 8 7 6 5 4 2 7 6 7 5 5 8 8 10 11 12 12
18 18 17 17 16 16 16 22 24 26 26 26 25 25 23 19 20 20 17 17 16 13 12 12 10 10 9 7 5 5 4 3 7 5 5 3 3 7 7 9 11 12 13
19 18 17 17 17 16 15 16 18 21 22 22 21 21 17 13 14 15 16 20 18 14 14 13 13 11 9 8 7 5 5 6 6 5 4 2 2 6 7 9 10 12 15
21 19 18 18 18 17 14 14 13 13 14 15 16 17 14 13 13 15 14 17 18 15 13 12 13 11 9 8 7 8 7 8 6 6 5 5 4 6 8 10 11 11 15
20 19 18 17 16 15 13 12 10 10 11 12 15 16 14 13 12 13 11 11 12 12 10 9 9 8 9 8 6 7 7 6 5 5 6 7 8 9 10 11 12 13 14
19 20 19 19 16 16 14 12 12 11 11 11 13 15 14 11 11 12 11 12 11 10 11 10 8 8 9 10 11 10 10 8 7 5 6 9 12 12 12 13 14 13 14
19 20 20 20 18 17 14 13 13 13 12 13 12 13 14 12 13 14 12 12 11 12 12 12 11 11 10 10 10 11 11 11 10 8 6 9 12 13 13 14 16 16 15
20 20 20 20 19 18 15 15 14 13 13 13 12 14 16 14 14 13 13 12 12 12 13 13 13 12 10 10 10 11 11 11 11 10 7 8 12 14 15 15 16 17 17
20 20 20 18 19 19 17 15 13 13 13 12 13 15 16 17 16 15 13 12 11 12 14 13 14 12 11 10 11 11 10 11 11 11 9 7 9 12 14 16 16 17 19
19 19 18 16 17 18 16 15 13 13 12 11 12 13 17 18 18 16 13 12 13 12 11 11 11 11 11 11 10 9 9 10 12 12 11 9 8 8 11 15 17 18 19
19 19 19 19 18 18 17 15 13 13 13 12 12 12 15 17 18 16 13 13 14 11 10 10 10 11 11 12 12 11 10 9 11 11 12 12 11 10 9 11 15 16 18
19 19 20 19 18 17 14 13 13 12 11 12 12 14 16 15 17 16 13 15 14 11 11 12 13 12 12 12 12 12 12 11 11 11 12 12 12 12 11 11 10 11 16
21 21 21 20 20 17 13 14 15 14 12 11 12 17 17 17 17 16 13 15 14 13 14 14 13 14 12 11 10 12 14 14 14 12 11 11 12 12 12 12 10 9 9
19 19 20 19 19 16 13 14 14 12 12 13 12 14 16 18 17 14 14 12 14 15 15 15 14 12 12 11 9 10 11 13 14 11 12 12 12 11 11 11 11 11 10
19 18 18 18 18 16 16 13 13 15 14 12 13 13 15 17 16 14 14 12 12 12 11 13 13 14 13 13 12 9 9 10 8 9 9 10 11 11 11 11 12 12 12
17 16 17 17 17 16 16 14 16 13 14 15 14 14 16 16 16 15 14 12 11 11 12 11 13 11 12 12 13 12 12 9 8 10 8 8 8 9 10 9 10 10 11
16 15 15 16 16 16 16 15 15 14 14 14 13 16 16 16 16 16 16 14 13 11 12 13 13 12 10 10 12 14 14 11 11 10 10 10 8 7 8 9 9 7 9
15 14 14 16 16 16 17 17 17 17 17 17 18 16 14 14 14 16 17 16 15 13 13 13 14 14 12 12 12 13 14 12 8 9 10 13 13 10 8 6 7 7 7
Wind_Direction
1 14 9 3 11 1 352 1 11 13 5 353 348 359 349 338 332 327 327 328 329 327 325 317 308 302 295 279 215 166 151 145 163 170 209 204 172 158 152 154 192 170 142
356 6 21 7 7 4 358 5 7 1 359 354 350 0 349 334 325 321 318 315 316 313 309 305 304 296 288 281 258 201 181 152 147 145 234 217 194 170 169 175 221 125 165
358 5 10 4 359 355 351 351 358 348 343 338 339 345 334 324 318 311 314 315 313 310 304 300 296 290 276 264 258 236 214 193 173 163 240 235 182 175 173 179 198 177 182
2 7 6 10 7 2 2 358 353 339 327 321 328 326 316 312 309 305 306 305 307 309 307 298 291 283 272 253 242 234 229 215 194 205 231 240 180 159 172 180 193 197 189
8 9 8 15 17 18 17 11 2 352 342 333 331 317 309 305 302 296 293 295 298 301 300 295 284 279 271 253 236 231 231 222 193 221 241 253 266 145 177 187 196 194 205
12 10 14 17 20 22 22 19 15 8 0 350 337 315 304 300 296 296 294 292 296 294 290 290 282 276 269 253 234 230 232 220 198 226 216 179 216 143 198 198 210 193 200
13 10 14 18 19 23 23 22 20 17 14 8 360 343 330 316 307 315 308 291 292 292 287 287 292 283 265 251 238 230 230 220 222 225 211 203 192 165 231 218 204 198 206
15 12 12 15 15 19 21 19 18 18 17 13 8 1 353 339 322 317 314 299 287 283 287 285 295 294 279 263 250 236 226 218 228 226 220 217 178 195 232 221 203 199 209
20 17 14 13 12 12 17 15 12 13 13 11 9 4 357 350 344 332 320 308 305 290 285 285 279 277 273 262 252 240 228 215 252 231 229 226 196 223 237 220 209 203 206
23 18 15 12 11 6 8 10 8 10 8 6 4 1 355 351 353 345 337 332 321 302 296 295 284 279 269 261 248 226 207 212 244 249 247 226 238 255 252 235 221 216 212
19 16 10 10 6 3 2 2 2 5 3 2 359 354 350 348 349 343 345 346 336 313 298 289 280 280 280 254 227 222 214 230 222 232 237 136 275 276 270 255 241 229 223
14 12 9 7 3 360 355 354 356 358 358 356 355 350 345 342 343 339 341 344 338 332 310 287 270 266 260 247 214 204 224 237 232 238 239 148 242 265 265 260 256 245 231
10 9 7 5 3 1 353 351 350 349 350 349 351 350 345 343 343 342 341 344 336 332 322 307 283 264 265 265 253 239 236 240 237 231 224 183 222 240 252 255 253 249 233
8 6 3 360 360 359 352 352 348 346 345 344 343 348 347 345 344 341 339 338 337 334 327 319 301 279 266 266 262 253 247 240 239 234 220 200 227 233 241 248 250 247 239
5 2 360 356 357 354 351 350 344 344 344 339 341 346 347 344 342 338 336 335 334 334 330 321 310 297 280 260 253 256 254 253 248 233 224 194 222 234 236 241 245 245 240
2 358 355 353 353 352 350 350 342 341 339 336 339 343 345 345 339 336 333 332 332 332 326 317 308 301 289 279 268 259 255 252 252 246 233 209 209 232 237 236 238 241 238
358 355 353 351 350 351 349 346 341 338 338 338 339 342 349 346 341 337 330 330 332 330 320 315 309 301 287 275 266 263 262 257 249 245 237 229 212 217 230 235 234 237 238
358 355 350 348 346 348 348 345 342 340 341 339 339 343 349 343 345 335 332 332 332 325 319 315 308 304 295 283 272 265 262 262 259 253 246 237 232 226 216 223 231 232 235
359 356 353 351 349 350 350 346 345 347 344 341 340 349 343 343 342 337 332 332 332 327 323 319 312 305 296 288 279 269 262 259 257 254 248 241 234 230 231 215 214 229 231
358 355 353 349 349 350 350 347 346 344 344 342 342 345 342 342 339 336 332 332 331 330 327 324 314 304 297 290 285 278 265 256 255 253 252 246 237 229 229 234 222 224 223
357 356 353 350 348 348 352 348 345 341 344 343 343 340 340 338 338 336 336 333 333 329 326 321 318 309 299 295 291 277 262 252 246 247 246 245 240 233 231 233 235 238 218
356 353 351 351 347 347 354 347 339 334 339 341 340 335 334 333 335 337 332 331 333 328 323 322 324 318 307 303 306 299 272 259 241 238 242 239 236 233 230 230 231 235 238
354 350 349 350 346 349 352 347 342 342 341 341 340 334 332 330 327 330 328 327 326 316 312 318 317 314 314 305 291 286 281 266 277 246 232 239 234 232 228 229 231 230 236
350 347 347 348 345 348 349 350 346 343 339 338 336 332 329 327 324 327 323 326 322 315 315 312 309 305 297 298 299 285 276 292 294 280 237 223 235 240 234 229 233 231 236
349 346 345 344 345 349 349 350 344 340 338 334 335 332 331 328 325 329 321 328 322 315 311 310 305 301 293 287 288 289 286 282 277 268 267 259 246 240 241 233 222 220 229
349 345 346 345 347 350 349 349 345 340 339 336 336 335 333 328 328 325 327 327 321 317 317 310 306 302 295 284 278 278 281 277 279 279 268 264 267 258 237 231 235 219 217